Regional Weather Roundup
Issued by NWS Green Bay, WI

Home | Current Version | Previous Version | Text Only | Print | Product List | Glossary On
Versions: 1 2 3 4 5 6 7 8 9 10 11 12 13 14 15 16 17 18 19 20 21 22 23 24 25 26 27 28 29 30 31 32 33 34 35 36 37 38 39 40 41 42 43 44 45 46 47 48 49 50
000
ASUS43 KGRB 262300
RWRGRB

NORTH-CENTRAL AND NORTHEAST WISCONSIN REGIONAL WEATHER ROUNDUP
NATIONAL WEATHER SERVICE GREEN BAY WI
600 PM CDT MON JUN 26 2017

WIZ005-009-010>012-018-019-270000-
NORTH CENTRAL WISCONSIN

CITY           SKY/WX    TMP DP  RH WIND       PRES   REMARKS
IRONWOOD       MOSUNNY   64  46  52 NW10      30.04F
MANITOWISH WTR NOT AVBL
ARBOR VITAE    NOT AVBL
EAGLE RIVER    NOT AVBL
LAND O LAKES   SUNNY     63  37  38 NW8G17    30.05S
RHINELANDER    MOSUNNY   64  41  42 NW10G17   30.05S
PHILLIPS       PTSUNNY   57  48  70 W3        30.06S
ANTIGO         NOT AVBL
TOMAHAWK       NOT AVBL
MERRILL        MOSUNNY   64  45  49 N7        30.05F
$$

WIZ013-073-270000-
NORTHEAST WISCONSIN

CITY           SKY/WX    TMP DP  RH WIND       PRES   REMARKS
IRON MOUNTAIN  MOSUNNY   62  45  53 NW5       30.01S
MARINETTE      CLOUDY    60  48  64 N8        30.02S
$$

WIZ017-030-035>037-045-270000-
CENTRAL WISCONSIN

CITY           SKY/WX    TMP DP  RH WIND       PRES   REMARKS
MEDFORD        NOT AVBL
WAUSAU         SUNNY     64  43  46 N9        30.04F
MOSINEE        MOSUNNY   63  45  51 NW8       30.07F
MARSHFIELD     MOSUNNY   65  45  48 N8        30.06S
WISC RAPIDS    SUNNY     66  46  48 N8        30.07F
STEVENS POINT  NOT AVBL
WAUPACA        MOSUNNY   65  46  51 NW10      30.05S
SHAWANO        NOT AVBL
CLINTONVILLE   CLOUDY    63  43  48 N14G21    30.04S
WAUTOMA        PTSUNNY   65  44  46 NW12G18   30.06S
$$

WIZ038-039-048-051-270000-
FOX VALLEY

CITY           SKY/WX    TMP DP  RH WIND       PRES   REMARKS
NWS GREEN BAY  LGT RAIN  58  55  90 N14       30.04R
APPLETON       PTSUNNY   57  48  72 NW10G17   30.03S
OSHKOSH        CLOUDY    59  50  72 N13       30.04R
FOND DU LAC    LGT RAIN  59  50  72 N10       30.05R
$$

WIZ022-050-052-270000-
EAST CENTRAL WISCONSIN

CITY           SKY/WX    TMP DP  RH WIND       PRES   REMARKS
EPHRAIM        NOT AVBL
WASHINGTON ISL NOT AVBL
STURGEON BAY     N/A     57  53  86 N10         N/A
MANITOWOC      NOT AVBL
SHEBOYGAN      RAIN      56  52  86 N12       30.02S FOG
$$

LMZ563-521-522-541>543-270000-
LAKESHORE

STATION/POSITION TIME  TEMP    WIND        PRES    VSBY  WAVE
                       AIR SEA DIR/SP/G                  HT/PER
                 (UTC) (F)     (DEG/KT/KT) (MB)    (MI)  (FT/S)
SHEBOYGAN LKSHOR 2200   60     310/ 13/ 15 1016.3F
KEWAUNEE LKSHORE 2230   57     340/  6/  9 1015.7R
NORTHPORT PIER   2240   58     340/ 11/ 14 1015.9S
N MID LAKE BUOY  2150   56 56  330/ 16/ 17 1015.6R         2/ 4
S GREEN BAY BUOY 2230   57     320/  6/  8 1016.3R
CHAMBERS ISLAND  2240   60     340/  9/ 10 1015.6S
MENOMINEE LKSHOR 2230          330/  6/  9 1015.5R
$$



USA.gov is the U.S. government's official web portal to all federal, state and local government web resources and services.